Location: Newark
(53.7833°N, 9.4833°E)
Time: 11:46:52
(UTC+00:00)

Envisat - Pass Details

Date: 12 December 2019
Orbit: 764 x 766 km, 98.1° (Epoch: 23 January)

Event Time Altitude Azimuth Distance (km) Brightness Sun altitude
Rises 18:03:38 0° 194° (SSW) 3,224 6.5 -25.4°
Reaches altitude 10° 18:06:11 10° 205° (SSW) 2,302 5.8 -25.8°
Maximum altitude 18:10:38 31° 267° (W) 1,341 4.8 -26.4°
Drops below altitude 10° 18:15:08 10° 328° (NNW) 2,317 5.8 -27.1°
Sets 18:17:44 0° 339° (NNW) 3,249 6.5 -27.5°
